Weather History for Curtin, WE

Change the Weather History Date:

Sunday, October 9, 2011

  Actual Average Record
Temperature  
Mean Temperature 84 °F -  
Max Temperature 99 °F - - ()
Min Temperature 68 °F - - ()
Cooling Degree Days 18    
Growing Degree Days 34 (Base 50)    
Moisture  
Dew Point 65 °F    
Average Humidity 59    
Maximum Humidity 88    
Minimum Humidity 19    
Precipitation  
Precipitation 0.00 in - - ()
Sea Level Pressure  
Sea Level Pressure 29.86 in    
Wind  
Wind Speed 6 mph ()    
Max Wind Speed 9 mph    
Max Gust Speed -    
T = Trace of Precipitation, MM = Missing Value Source: Averaged Metar Reports

Daily Weather History Graph

Daily Weather History Graph

Search for Another Location

Airport:

Trip Planner

Search our weather history database for the weather conditions in past years. The results will help you decide how hot, cold, wet, or windy it might be!

Date:

Astronomy

Oct. 09, 2011 Rise Set
Actual Time 5:21 AM AWST 5:43 PM AWST
Civil Twilight 4:59 AM AWST 6:05 PM AWST
Nautical Twilight 4:33 AM AWST 6:30 PM AWST
Astronomical Twilight 4:08 AM AWST 6:56 PM AWST
Moon 3:31 PM AWST (10/9) 3:15 AM AWST (10/9)
Length of Visible Light 13h 06m
Length of Day
12h 22m
Waxing Gibbous, 92% of the Moon is Illuminated
Oct 9
Waxing Gibbous
Oct 12
Full
Oct 20
Last Quarter
Oct 27
New
Nov 3
First Quarter

Hourly Weather History & Observations

Time (AWST) Temp. Heat Index Dew Point Humidity Pressure Visibility Wind Dir Wind Speed Gust Speed Precip Events Conditions
12:00 AM 72 °F - 65 °F 73% 29.89 in - WSW 5.8 mph - -  
12:00 AM 71.6 °F - 64.4 °F 78% 29.89 in - WSW 5.8 mph - N/A   Unknown
1:00 AM 71.6 °F - 66.2 °F 83% 29.86 in - WSW 5.8 mph - N/A   Unknown
2:00 AM 69.8 °F - 64.4 °F 83% 29.86 in - WSW 5.8 mph - N/A   Unknown
3:00 AM 70 °F - 64 °F 77% 29.85 in - WSW 6.9 mph - -  
3:00 AM 69.8 °F - 64.4 °F 83% 29.86 in - WSW 6.9 mph - N/A   Unknown
4:00 AM 69.8 °F - 64.4 °F 83% 29.86 in - WSW 4.6 mph - N/A   Unknown
5:00 AM 68.0 °F - 64.4 °F 88% 29.89 in - SW 5.8 mph - N/A   Unknown
6:00 AM 69 °F - 65 °F 82% 29.91 in - SW 4.6 mph - -  
6:00 AM 69.8 °F - 64.4 °F 83% 29.92 in - SW 4.6 mph - N/A   Unknown
7:00 AM 73.4 °F - 66.2 °F 78% 29.92 in - SW 6.9 mph - N/A   Unknown
8:00 AM 77.0 °F - 66.2 °F 69% 29.92 in - SW 8.1 mph - N/A   Unknown
9:00 AM 81 °F - 65 °F 48% 29.93 in - West 8.1 mph - -  
9:00 AM 80.6 °F 82.3 °F 64.4 °F 58% 29.92 in - West 8.1 mph - N/A   Unknown
10:00 AM 86.0 °F 87.3 °F 64.4 °F 48% 29.92 in - WSW 6.9 mph - N/A   Unknown
11:00 AM 89.6 °F 91.1 °F 64.4 °F 43% 29.89 in - WSW 6.9 mph - N/A   Unknown
12:00 PM 94 °F - 62 °F 25% 29.86 in - West 8.1 mph - -  
12:00 PM 93.2 °F 94.1 °F 62.6 °F 36% 29.86 in - West 8.1 mph - N/A   Unknown
1:00 PM 96.8 °F 98.0 °F 62.6 °F 32% 29.83 in - SSW 6.9 mph - N/A   Unknown
2:00 PM 96.8 °F 96.2 °F 59.0 °F 28% 29.80 in - WNW 6.9 mph - N/A   Unknown
3:00 PM 98 °F - 59 °F 19% 29.78 in - WSW 9.2 mph - -  
3:00 PM 98.6 °F 98.5 °F 59.0 °F 27% 29.77 in - WSW 9.2 mph - N/A   Unknown
4:00 PM 98.6 °F 98.5 °F 59.0 °F 27% 29.77 in - West 6.9 mph - N/A   Unknown
5:00 PM 96.8 °F 97.1 °F 60.8 °F 30% 29.77 in - West 6.9 mph - N/A   Unknown
6:00 PM 88 °F - 66 °F 38% 29.81 in - WNW 6.9 mph - -  
6:00 PM 87.8 °F 90.4 °F 66.2 °F 49% 29.80 in - WNW 6.9 mph - N/A   Unknown
7:00 PM 84.2 °F 87.3 °F 68.0 °F 58% 29.86 in - West 6.9 mph - N/A   Unknown
8:00 PM 80.6 °F 84.6 °F 71.6 °F 74% 29.86 in - WNW 6.9 mph - N/A   Unknown
9:00 PM 79 °F - 71 °F 71% 29.88 in - West 4.6 mph - -  
9:00 PM 78.8 °F - 71.6 °F 78% 29.89 in - West 4.6 mph - N/A   Unknown
10:00 PM 77.0 °F - 66.2 °F 69% 29.89 in - WSW 6.9 mph - N/A   Unknown
11:00 PM 75.2 °F - 64.4 °F 69% 29.89 in - WSW 9.2 mph - N/A   Unknown